Change the Weather History Date:

Thursday, April 25, 2013

  Actual Average Record
Temperature  
Mean Temperature 50 °F -  
Max Temperature 72 °F 75 °F 91 °F (1949)
Min Temperature 30 °F 50 °F 30 °F (2013)
Degree Days  
Heating Degree Days 15    
Moisture  
Dew Point 33 °F    
Average Humidity 51    
Maximum Humidity 100    
Minimum Humidity 23    
Precipitation  
Precipitation 0.00 in - - ()
Sea Level Pressure  
Sea Level Pressure 30.27 in    
Wind  
Wind Speed 5 mph (South)    
Max Wind Speed 16 mph    
Max Gust Speed 22 mph    
Visibility 10 miles    
Events      
Averages and records for this station are not official NWS values.
T = Trace of Precipitation, MM = Missing Value Source: NWS Daily Summary

Daily Weather History Graph

Daily Weather History Graph

Search for Another Location

Airport or City:

Trip Planner

Search our weather history database for the weather conditions in past years. The results will help you decide how hot, cold, wet, or windy it might be!

Date:

Astronomy

Apr. 25, 2013 Rise Set
Actual Time 6:36 AM CDT 8:07 PM CDT
Civil Twilight 6:09 AM CDT 8:35 PM CDT
Nautical Twilight 5:36 AM CDT 9:08 PM CDT
Astronomical Twilight 5:02 AM CDT 9:42 PM CDT
Moon 8:21 PM CDT (4/25) 6:20 AM CDT (4/25)
Length of Visible Light 14h 25m
Length of Day
13h 30m
Full, 100% of the Moon is Illuminated
Apr 25
Full
Apr 25
Full
May 2
Last Quarter
May 9
New
May 17
First Quarter

Hourly Weather History & Observations

Time (CDT) Temp. Windchill Dew Point Humidity Pressure Visibility Wind Dir Wind Speed Gust Speed Precip Events Conditions
12:53 AM 44.1 °F 40.8 °F 32.0 °F 63% 30.31 in 10.0 mi SSW 5.8 mph - N/A   Clear
1:53 AM 42.1 °F 40.2 °F 30.9 °F 65% 30.31 in 10.0 mi South 3.5 mph - N/A   Clear
2:53 AM 37.9 °F - 32.0 °F 79% 30.30 in 10.0 mi Calm Calm - N/A   Clear
3:53 AM 34.0 °F - 32.0 °F 92% 30.32 in 10.0 mi Calm Calm - N/A   Clear
4:53 AM 33.1 °F - 30.9 °F 92% 30.32 in 10.0 mi Calm Calm - N/A   Clear
5:53 AM 30.9 °F - 30.9 °F 100% 30.32 in 10.0 mi Calm Calm - N/A   Clear
6:53 AM 30.9 °F - 30.9 °F 100% 30.34 in 10.0 mi Calm Calm - N/A   Clear
7:53 AM 39.0 °F - 35.1 °F 86% 30.36 in 10.0 mi Calm Calm - N/A   Clear
8:53 AM 51.1 °F - 35.1 °F 54% 30.36 in 10.0 mi SSW 5.8 mph - N/A   Clear
9:53 AM 57.0 °F - 34.0 °F 42% 30.36 in 10.0 mi WSW 4.6 mph - N/A   Clear
10:53 AM 60.1 °F - 33.1 °F 36% 30.35 in 10.0 mi West 4.6 mph - N/A   Clear
11:53 AM 64.9 °F - 30.9 °F 28% 30.33 in 10.0 mi SSE 11.5 mph - N/A   Clear
12:53 PM 68.0 °F - 34.0 °F 28% 30.31 in 10.0 mi ESE 6.9 mph - N/A   Clear
1:53 PM 70.0 °F - 35.1 °F 28% 30.28 in 10.0 mi SSE 9.2 mph - N/A   Clear
2:53 PM 70.0 °F - 33.1 °F 26% 30.27 in 10.0 mi SE 16.1 mph 19.6 mph N/A   Clear
3:53 PM 70.0 °F - 30.0 °F 23% 30.24 in 10.0 mi South 11.5 mph 21.9 mph N/A   Clear
4:53 PM 69.1 °F - 32.0 °F 25% 30.21 in 10.0 mi SSE 11.5 mph 18.4 mph N/A   Clear
5:53 PM 66.9 °F - 30.9 °F 26% 30.21 in 10.0 mi SSE 9.2 mph - N/A   Clear
6:53 PM 64.9 °F - 32.0 °F 29% 30.20 in 10.0 mi SSE 10.4 mph - N/A   Partly Cloudy
7:53 PM 61.0 °F - 34.0 °F 36% 30.18 in 10.0 mi SSE 6.9 mph - N/A   Clear
8:53 PM 60.1 °F - 35.1 °F 39% 30.17 in 10.0 mi South 3.5 mph - N/A   Clear
9:53 PM 59.0 °F - 34.0 °F 39% 30.18 in 10.0 mi South 3.5 mph - N/A   Clear
10:53 PM 57.0 °F - 34.0 °F 42% 30.16 in 10.0 mi SSE 3.5 mph - N/A   Clear
11:53 PM 57.0 °F - 35.1 °F 44% 30.15 in 10.0 mi South 5.8 mph - N/A   Clear